Location: Albany
(35.0170°S, 117.8920°E)
Time: 21:47:30
(UTC+08:00)

A-11 Canister half - Pass Details

Date: 22 January 2021
Orbit: 1525 x 1684 km, 47.3° (Epoch: 03 March)

Event Time Altitude Azimuth Distance (km) Brightness Sun altitude
Rises 06:32:58 0° 252° (WSW) 4,908 11.1 13.7°
Reaches altitude 10° 06:36:29 10° 244° (WSW) 3,902 10.7 14.4°
Maximum altitude 06:45:43 40° 176° (S) 2,223 10.3 16.2°
Drops below altitude 10° 06:54:39 10° 108° (ESE) 3,780 13.5 18.0°
Sets 06:57:59 0° 100° (E) 4,742 13.3 18.7°
